EW6694 Weather Reports


time (UTC)temp
C
wind
direction
speed
KPH
gust
KPH
rain 1hr
cm
rain 24hr
cm
rain mn
cm
humidity
%
barometer
mb
20260502160419 6 313 12.9 22.5 0.00 0.00 0.00 48 1013.1
20260502151905 5 322 6.4 16.1 0.00 0.00 0.00 56 1013.5
20260502151404 5 323 11.3 20.9 0.00 0.00 0.00 56 1013.6
20260502150905 5 319 9.7 20.9 0.00 0.00 0.00 58 1013.6
20260502150416 5 232 14.5 19.3 0.00 0.00 0.00 57 1013.6
20260502150404 5 315 11.3 17.7 0.00 0.00 0.00 57 1013.6
20260502130337 2 284 1.6 11.3 0.00 0.00 0.00 70 1014.9
20260502123316 2 358 0.0 0.0 0.00 0.00 0.00 72 1015.0
20260502122810 2 293 0.0 4.8 0.00 0.00 0.00 73 1014.9
20260502122255 1 293 3.2 8.0 0.00 0.00 0.00 73 1015.1
20260502122249 1 293 0.0 8.0 0.00 0.00 0.00 74 1015.0
20260502121223 1 317 6.4 8.0 0.00 0.00 0.00 73 1015.1
20260502120723 1 305 0.0 6.4 0.00 0.00 0.00 75 1015.1
20260502120220 1 341 3.2 6.4 0.00 0.00 0.00 76 1014.9
20260502115719 1 334 1.6 6.4 0.00 0.00 0.00 76 1015.0
20260502115218 1 327 3.2 6.4 0.00 0.00 0.00 77 1015.0
20260502114717 1 21 6.4 6.4 0.00 0.00 0.00 76 1014.8
20260502114217 1 16 3.2 6.4 0.00 0.00 0.00 79 1014.8
20260502113718 1 19 3.2 8.0 0.00 0.00 0.00 80 1014.9
20260502113215 1 19 4.8 8.0 0.00 0.00 0.00 81 1014.8
20260502112946 1 19 4.8 6.4 0.00 0.00 0.00 82 1014.6
20260502112214 0 23 1.6 3.2 0.00 0.00 0.00 82 1014.5
20260502111706 0 132 0.0 0.0 0.00 0.00 0.00 82 1014.5
20260502111155 0 132 0.0 0.0 0.00 0.00 0.00 82 1014.5
20260502110649 0 132 0.0 0.0 0.00 0.00 0.00 82 1014.6
20260502110136 0 132 0.0 0.0 0.00 0.00 0.00 82 1014.6
20260502105620 0 132 0.0 0.0 0.00 0.00 0.00 82 1014.5
20260502105120 0 132 0.0 0.0 0.00 0.00 0.00 82 1014.6
20260502104613 0 132 0.0 0.0 0.00 0.00 0.00 82 1014.5
20260502104340 0 132 0.0 0.0 0.00 0.00 0.00 82 1014.5
20260502103606 0 132 0.0 0.0 0.00 0.00 0.00 82 1014.6
20260502103103 0 132 0.0 4.8 0.00 0.00 0.00 81 1014.5
20260502102552 0 132 0.0 4.8 0.00 0.00 0.00 81 1014.5
20260502102318 0 168 4.8 4.8 0.00 0.00 0.00 81 1014.5
20260502101600 0 118 0.0 0.0 0.00 0.00 0.00 81 1014.5
20260502101036 0 118 0.0 0.0 0.00 0.00 0.00 81 1014.5
20260502100530 0 118 0.0 0.0 0.00 0.00 0.00 81 1014.5
20260502091411 0 118 0.0 0.0 0.00 0.00 0.00 79 1014.3
20260502090906 0 118 0.0 1.6 0.00 0.00 0.00 79 1014.3
20260502090406 0 118 0.0 3.2 0.00 0.00 0.00 78 1014.3
20260502071307 1 358 6.4 11.3 0.00 0.00 0.00 75 1013.7
20260502070806 0 347 6.4 11.3 0.00 0.00 0.00 76 1013.7
20260502070309 0 288 0.0 9.7 0.00 0.00 0.00 78 1013.9
20260502065756 0 319 3.2 9.7 0.00 0.00 0.00 79 1013.9
20260502065257 0 330 4.8 9.7 0.00 0.00 0.00 82 1013.9
20260502064755 0 350 3.2 4.8 0.00 0.00 0.00 81 1013.9
20260502064256 0 303 0.0 0.0 0.00 0.00 0.00 81 1013.9
20260502063734 0 303 0.0 0.0 0.00 0.00 0.00 80 1013.9
20260502063231 0 303 0.0 0.0 0.00 0.00 0.00 80 1013.9
20260502063223 0 303 0.0 0.0 0.00 0.00 0.00 80 1013.9
20260502062153 0 303 0.0 0.0 0.00 0.00 0.00 80 1014.0
20260502061901 0 303 0.0 0.0 0.00 0.00 0.00 79 1014.0
20260502061106 0 303 0.0 0.0 0.00 0.00 0.00 79 1014.0
20260502060608 0 303 0.0 0.0 0.00 0.00 0.00 78 1013.9
20260502060106 0 303 0.0 0.0 0.00 0.00 0.00 77 1013.9
20260502055544 0 303 0.0 0.0 0.00 0.00 0.00 77 1014.0
20260502055033 0 303 0.0 0.0 0.00 0.00 0.00 76 1013.9
20260502054525 0 303 0.0 0.0 0.00 0.00 0.00 76 1014.0
20260502054025 0 303 0.0 0.0 0.00 0.00 0.00 75 1014.0
20260502053731 1 303 0.0 6.4 0.00 0.00 0.00 74 1014.0
20260502053612 0 303 0.0 0.0 0.00 0.00 0.00 75 1014.0
20260502052500 1 303 0.0 8.0 0.00 0.00 0.00 72 1013.9
20260502051937 1 299 3.2 8.0 0.00 0.00 0.00 72 1013.9
20260502051440 1 312 4.8 6.4 0.00 0.00 0.00 70 1013.9
20260502050934 1 326 4.8 6.4 0.00 0.00 0.00 70 1013.7
20260502050437 2 354 3.2 8.0 0.00 0.00 0.00 71 1013.7
20260502045934 2 9 4.8 8.0 0.00 0.00 0.00 70 1013.7
20260502045708 2 358 3.2 6.4 0.00 0.00 0.00 70 1013.7
20260502045205 2 343 0.0 3.2 0.00 0.00 0.00 69 1013.9
20260502044435 2 337 0.0 4.8 0.00 0.00 0.00 70 1013.9
20260502043929 2 338 3.2 6.4 0.00 0.00 0.00 69 1014.0
20260502043428 2 338 4.8 6.4 0.00 0.00 0.00 69 1014.0
20260502042924 2 326 3.2 6.4 0.00 0.00 0.00 69 1014.0
20260502042656 2 322 3.2 6.4 0.00 0.00 0.00 69 1013.9
20260502041926 2 338 3.2 6.4 0.00 0.00 0.00 70 1013.9
20260502041700 2 350 0.0 4.8 0.00 0.00 0.00 70 1013.7
20260502040920 2 350 3.2 4.8 0.00 0.00 0.00 68 1013.7
20260502040421 2 345 3.2 0.0 0.00 0.00 0.00 68 1013.9
20260502035852 2 348 3.2 6.4 0.00 0.00 0.00 68 1013.9
20260502035350 2 352 3.2 9.7 0.00 0.00 0.00 67 1014.0
20260502034850 3 350 1.6 9.7 0.00 0.00 0.00 66 1014.0
20260502034621 2 350 4.8 8.0 0.00 0.00 0.00 64 1013.9
20260502034121 3 4 6.4 9.7 0.00 0.00 0.00 65 1014.0
20260502033346 3 4 4.8 11.3 0.00 0.00 0.00 65 1014.0
20260502032844 3 352 8.0 11.3 0.00 0.00 0.00 64 1014.0
20260502032343 3 21 4.8 11.3 0.00 0.00 0.00 64 1013.9
20260502031843 3 358 6.4 14.5 0.00 0.00 0.00 65 1013.9
20260502031342 3 355 4.8 14.5 0.00 0.00 0.00 64 1013.9
20260502030842 3 355 11.3 14.5 0.00 0.00 0.00 64 1013.9
20260502030341 3 1 6.4 16.1 0.00 0.00 0.00 65 1014.0
20260502025839 3 351 8.0 17.7 0.00 0.00 0.00 63 1014.0
20260502025338 3 14 6.4 17.7 0.00 0.00 0.00 62 1014.0
20260502024837 3 354 12.9 17.7 0.00 0.00 0.00 61 1014.0
20260502024337 3 12 9.7 22.5 0.00 0.00 0.00 62 1014.1
20260502024108 3 14 8.0 22.5 0.00 0.00 0.00 62 1014.1
20260502023335 3 352 12.9 20.9 0.00 0.00 0.00 60 1014.0
20260502022834 3 11 8.0 24.1 0.00 0.00 0.00 63 1014.0
20260502022337 3 344 14.5 24.1 0.00 0.00 0.00 61 1014.0
20260502021832 3 2 14.5 22.5 0.00 0.00 0.00 61 1014.0
20260502021332 3 8 11.3 20.9 0.00 0.00 0.00 62 1014.0
20260502020831 3 46 8.0 24.1 0.00 0.00 0.00 62 1014.0
20260502020329 3 11 12.9 24.1 0.00 0.00 0.00 62 1014.0
20260502015830 3 343 12.9 22.5 0.00 0.00 0.00 61 1013.9
20260502015328 4 16 9.7 24.1 0.00 0.00 0.00 61 1013.7
20260502014828 4 358 9.7 24.1 0.00 0.00 0.00 61 1013.7
20260502014326 4 345 17.7 24.1 0.00 0.00 0.00 58 1013.6
20260502013825 4 336 14.5 22.5 0.00 0.00 0.00 59 1013.6
20260502013557 4 350 9.7 22.5 0.00 0.00 0.00 61 1013.5
20260502012838 4 1 9.7 22.5 0.00 0.00 0.00 60 1013.5
20260502012324 4 16 11.3 22.5 0.00 0.00 0.00 58 1013.4
20260502011836 4 4 17.7 22.5 0.00 0.00 0.00 59 1013.3
20260502011322 4 1 11.3 24.1 0.00 0.00 0.00 59 1013.3
20260502011105 4 357 14.5 24.1 0.00 0.00 0.00 62 1013.2
20260502010824 5 343 9.7 24.1 0.00 0.00 0.00 61 1013.2
20260502005818 5 8 4.8 9.7 0.00 0.00 0.00 66 1013.1
20260502005319 5 357 3.2 14.5 0.00 0.00 0.00 65 1012.9
20260502004819 5 358 3.2 14.5 0.00 0.00 0.00 65 1013.0
20260502004311 5 2 6.4 14.5 0.00 0.00 0.00 63 1012.9
20260502003818 5 0 3.2 9.7 0.00 0.00 0.00 66 1012.9
20260502003810 5 22 6.4 11.3 0.00 0.00 0.00 64 1012.9
20260502003437 5 345 6.4 11.3 0.00 0.00 0.00 64 1012.8
20260502002307 5 11 4.8 11.3 0.00 0.00 0.00 64 1012.8
20260502002039 5 315 8.0 11.3 0.00 0.00 0.00 63 1012.7
20260502001308 5 302 4.8 11.3 0.00 0.00 0.00 64 1012.7
20260502000805 5 279 3.2 11.3 0.00 0.00 0.00 66 1012.6
20260502000317 5 316 6.4 12.9 0.00 0.00 0.00 65 1012.5
20260502000304 5 265 6.4 11.3 0.00 0.00 0.00 65 1012.6
20260501235306 5 298 6.4 17.7 0.00 0.00 0.00 64 1012.5
20260501234803 5 298 8.0 17.7 0.00 0.00 0.00 64 1012.5
20260501234302 5 315 9.7 16.1 0.00 0.00 0.00 65 1012.5
20260501233800 5 317 8.0 14.5 0.00 0.00 0.00 65 1012.4
20260501233259 5 310 9.7 14.5 0.00 0.00 0.00 67 1012.4
20260501232800 5 317 6.4 14.5 0.00 0.00 0.00 67 1012.4
20260501232258 5 302 6.4 16.1 0.00 0.00 0.00 67 1012.4
20260501231756 5 286 8.0 17.7 0.00 0.00 0.00 68 1012.3
20260501231256 5 293 11.3 17.7 0.00 0.00 0.00 69 1012.3
20260501230755 5 313 11.3 19.3 0.00 0.00 0.00 69 1012.4
20260501230254 5 319 9.7 19.3 0.00 0.00 0.00 71 1012.4
20260501225754 5 299 12.9 19.3 0.00 0.00 0.00 69 1012.3
20260501225254 5 307 9.7 17.7 0.00 0.00 0.00 68 1012.4
20260501224752 5 278 6.4 17.7 0.00 0.00 0.00 67 1012.4
20260501224251 5 279 11.3 17.7 0.00 0.00 0.00 67 1012.4
20260501223754 5 282 11.3 16.1 0.00 0.00 0.00 65 1012.4
20260501223251 5 300 8.0 14.5 0.00 0.00 0.00 68 1012.3
20260501222749 5 324 8.0 14.5 0.00 0.00 0.00 69 1012.3
20260501222247 5 329 11.3 14.5 0.00 0.00 0.00 67 1012.3
20260501221747 5 315 9.7 14.5 0.00 0.00 0.00 66 1012.2
20260501221248 5 305 8.0 12.9 0.00 0.00 0.00 67 1012.3
20260501221015 5 293 6.4 14.5 0.00 0.00 0.00 67 1012.2
20260501220243 5 326 8.0 14.5 0.00 0.00 0.00 68 1012.2
20260501215743 5 320 8.0 16.1 0.00 0.00 0.00 68 1012.2
20260501215243 5 334 3.2 16.1 0.00 0.00 0.00 66 1012.2
20260501214743 5 319 6.4 16.1 0.00 0.00 0.00 67 1012.2
20260501214240 5 348 3.2 14.5 0.00 0.00 0.00 68 1012.1
20260501214012 5 338 6.4 14.5 0.00 0.00 0.00 68 1012.1
20260501213236 5 284 8.0 12.9 0.00 0.00 0.00 67 1012.1
20260501213009 5 309 8.0 14.5 0.00 0.00 0.00 69 1012.0
20260501212240 5 286 6.4 14.5 0.00 0.00 0.00 68 1012.1
20260501211725 5 345 3.2 14.5 0.00 0.00 0.00 69 1012.0
20260501211223 5 262 8.0 14.5 0.00 0.00 0.00 68 1012.1
20260501210721 5 333 9.7 16.1 0.00 0.00 0.00 68 1012.1
20260501210221 5 302 8.0 16.1 0.00 0.00 0.00 69 1012.1
20260501205951 5 288 4.8 14.5 0.00 0.00 0.00 70 1012.1
20260501205219 5 277 6.4 14.5 0.00 0.00 0.00 68 1012.1
20260501204718 5 354 6.4 16.1 0.00 0.00 0.00 70 1012.1
20260501204216 5 277 8.0 16.1 0.00 0.00 0.00 73 1012.1
20260501203716 5 319 12.9 16.1 0.00 0.00 0.00 70 1012.1
20260501203216 5 343 11.3 14.5 0.00 0.00 0.00 71 1012.1
20260501202714 5 289 1.6 9.7 0.00 0.00 0.00 74 1012.1
20260501202215 5 16 0.0 12.9 0.00 0.00 0.00 74 1012.1
20260501201704 5 340 0.0 12.9 0.00 0.00 0.00 75 1012.2
20260501201146 4 288 8.0 14.5 0.00 0.00 0.00 75 1012.2
20260501200645 4 274 3.2 17.7 0.00 0.00 0.00 75 1012.3
20260501200144 4 324 11.3 17.7 0.00 0.00 0.00 76 1012.3
20260501195643 3 282 9.7 16.1 0.00 0.00 0.00 76 1012.3
20260501195144 3 350 9.7 16.1 0.00 0.00 0.00 74 1012.4
20260501194652 3 317 12.9 16.1 0.00 0.00 0.00 75 1012.4
20260501194644 3 327 9.7 16.1 0.00 0.00 0.00 75 1012.3
20260501193640 4 329 12.9 16.1 0.00 0.00 0.00 77 1012.4
20260501193139 4 358 9.7 14.5 0.00 0.00 0.00 76 1012.4
20260501192909 4 348 8.0 11.3 0.00 0.00 0.00 77 1012.5
20260501192137 4 15 3.2 11.3 0.00 0.00 0.00 77 1012.4
20260501191913 4 42 3.2 11.3 0.00 0.00 0.00 78 1012.4
20260501191136 4 106 8.0 11.3 0.00 0.00 0.00 77 1012.4
20260501190635 4 77 4.8 11.3 0.00 0.00 0.00 78 1012.5
20260501190405 4 151 0.0 11.3 0.00 0.00 0.00 79 1012.5
20260501185635 3 316 6.4 11.3 0.00 0.00 0.00 77 1012.5
20260501185133 3 358 8.0 12.9 0.00 0.00 0.00 78 1012.5
20260501184905 3 336 1.6 14.5 0.00 0.00 0.00 80 1012.4
20260501184131 3 347 8.0 16.1 0.00 0.00 0.00 81 1012.5
20260501183631 3 23 11.3 16.1 0.00 0.00 0.00 79 1012.5
20260501183130 3 4 8.0 14.5 0.00 0.00 0.00 81 1012.5
20260501182629 3 28 6.4 16.1 0.00 0.00 0.00 81 1012.6
20260501182128 3 16 4.8 16.1 0.00 0.00 0.00 82 1012.5
20260501181900 3 344 6.4 17.7 0.00 0.00 0.00 84 1012.6
20260501181126 3 358 11.3 17.7 0.00 0.00 0.00 83 1012.6
20260501180627 3 357 9.7 19.3 0.00 0.00 0.00 84 1012.6
20260501180125 3 11 9.7 19.3 0.00 0.00 0.00 84 1012.6
20260501175627 3 345 4.8 19.3 0.00 0.00 0.00 86 1012.6
20260501175354 3 12 6.4 12.9 0.00 0.00 0.00 86 1012.7
20260501174622 3 56 8.0 12.9 0.00 0.00 0.00 87 1012.7
20260501174122 3 33 8.0 11.3 0.00 0.00 0.00 87 1012.7
20260501173620 3 30 6.4 17.7 0.00 0.00 0.00 89 1012.7
20260501173120 2 57 6.4 17.7 0.00 0.00 0.00 90 1012.8
20260501172620 2 32 9.7 14.5 0.00 0.00 0.00 90 1012.8
20260501172120 2 85 8.0 14.5 0.00 0.00 0.00 91 1012.8
20260501171632 1 35 8.0 12.9 0.00 0.00 0.00 92 1012.9
20260501171618 2 63 4.8 14.5 0.00 0.00 0.00 92 1012.9
20260501170616 1 28 6.4 14.5 0.00 0.00 0.00 93 1013.0
20260501170121 1 42 9.7 14.5 0.00 0.00 0.00 93 1012.9
20260501165616 1 341 9.7 16.1 0.00 0.00 0.00 94 1013.0
20260501165608 1 340 11.3 14.5 0.00 0.00 0.00 93 1012.9
20260501164606 1 330 8.0 16.1 0.00 0.00 0.00 93 1013.0
20260501164105 1 2 9.7 16.1 0.00 0.00 0.00 94 1013.0
20260501163608 1 355 8.0 16.1 0.00 0.00 0.00 94 1013.0
20260501163116 1 343 8.0 16.1 0.00 0.00 0.00 93 1013.0
20260501162603 1 2 6.4 17.7 0.00 0.00 0.00 93 1013.0
20260501162334 1 32 8.0 17.7 0.00 0.00 0.00 92 1013.0
20260501161601 1 340 9.7 16.1 0.00 0.00 0.00 91 1013.0
20260501161114 2 9 8.0 16.1 0.00 0.00 0.00 91 1013.0
20260501160829 2 30 8.0 17.7 0.00 0.00 0.00 91 1013.0